Discovery — 3FII9 — position and weather

sailwx.info

Track history (hours):
 
Tides and Currents Weather Stations Pressure Air Temp Water Temp Dewpoint Dewpoint Depression Visibility Wind Speed Wind Dir Waves Ship Positions

Discovery

Operator: V Ships Leisure SAM

Last reported at 2014-Jul-30 11:22 UTC. Time now 2014-Jul-30 13:18 UTC.
Position N 35°45' W 000°38'.

Length 177 m; draft 9.7 m.

Type: Cargo ship. MMSI: 353389000.

Date/timePositionNaut miles runAvg speedWind from/ knotsBaromVisibWave heightAir tempDewpointWater temp
2014-Jul-30 11:22N 35°45' W 000°38'0 0.0
2014-Jul-28 20:13N 35°45' W 000°38'  
2014-Jul-26 13:33N 35°59' W 005°21'1514.6
2014-Jul-26 12:33N 35°55' W 005°38'14913.4
2014-Jul-26 01:25N 36°25' W 008°39'4113.1
2014-Jul-25 22:16N 36°41' W 009°27'5113.7
2014-Jul-25 18:33N 37°29' W 009°45'2814.0
2014-Jul-25 16:33N 37°57' W 009°53'  
2014-Jul-22 22:11N 49°48' W 000°57'1015.2
2014-Jul-22 21:31N 49°42' W 000°44'1314.1
2014-Jul-22 20:34N 49°34' W 000°27'1313.4
2014-Jul-22 19:33N 49°30' W 000°07'1111.2
2014-Jul-22 18:33N 49°26' E 000°09'9 9.3
2014-Jul-22 17:33N 49°27' E 000°23'6 6.0
2014-Jul-22 16:33N 49°28' E 000°32'0 0.0
2014-Jul-20 16:33N 49°28' E 000°32'1010.3
2014-Jul-20 15:33N 49°26' E 000°17'1110.9
2014-Jul-20 14:34N 49°27' E 000°01'6 4.7
2014-Jul-20 13:22N 49°29' W 000°08'0 0.0
2014-Jul-20 12:31N 49°29' W 000°08'0 0.0
2014-Jul-20 11:28N 49°29' W 000°08'  
Track history (hours):
 
Tides and Currents Weather Stations Pressure Air Temp Water Temp Dewpoint Dewpoint Depression Visibility Wind Speed Wind Dir Waves Ship Positions

Discovery

Operator: V Ships Leisure SAM

Last reported at 2014-Jul-30 11:22 UTC. Time now 2014-Jul-30 13:18 UTC.
Position N 35°45' W 000°38'.

Length 177 m; draft 9.7 m.

Type: Cargo ship. MMSI: 353389000.

Date/timePositionNaut miles runAvg speedWind from/ knotsBaromVisibWave heightAir tempDewpointWater temp
2014-Jul-30 11:22N 35°45' W 000°38'0 0.0
2014-Jul-28 20:13N 35°45' W 000°38'  
2014-Jul-26 13:33N 35°59' W 005°21'1514.6
2014-Jul-26 12:33N 35°55' W 005°38'14913.4
2014-Jul-26 01:25N 36°25' W 008°39'4113.1
2014-Jul-25 22:16N 36°41' W 009°27'5113.7
2014-Jul-25 18:33N 37°29' W 009°45'2814.0
2014-Jul-25 16:33N 37°57' W 009°53'  
2014-Jul-22 22:11N 49°48' W 000°57'1015.2
2014-Jul-22 21:31N 49°42' W 000°44'1314.1
2014-Jul-22 20:34N 49°34' W 000°27'1313.4
2014-Jul-22 19:33N 49°30' W 000°07'1111.2
2014-Jul-22 18:33N 49°26' E 000°09'9 9.3
2014-Jul-22 17:33N 49°27' E 000°23'6 6.0
2014-Jul-22 16:33N 49°28' E 000°32'0 0.0
2014-Jul-20 16:33N 49°28' E 000°32'1010.3
2014-Jul-20 15:33N 49°26' E 000°17'1110.9
2014-Jul-20 14:34N 49°27' E 000°01'6 4.7
2014-Jul-20 13:22N 49°29' W 000°08'0 0.0
2014-Jul-20 12:31N 49°29' W 000°08'0 0.0
2014-Jul-20 11:28N 49°29' W 000°08'  

Dump ship's entire track history